Location: Staunton
(38.1490°N, 79.0720°W)
Time: 13:54:10
(UTC-04:00)

ISS - Pass Details

Date: 18 July 2019
Orbit: 409 x 418 km, 51.6° (Epoch: 20 July)

Event Time Altitude Azimuth Distance (km) Brightness Sun altitude
Rises 23:13:34 0° 277° (W) 2,347 0.6 -23.6°
Reaches altitude 10° 23:16:22 10° 302° (WNW) 1,485 -0.1 -23.9°
Maximum altitude 23:18:20 15° 339° (NNW) 1,230 -0.5 -24.1°
Drops below altitude 10° 23:20:19 10° 15° (NNE) 1,484 -0.4 -24.3°
Sets 23:23:06 0° 41° (NE) 2,346 0.3 -24.6°
